Theta_e
310 305 303 308 313 314 315 316 312 318 324 321 323 320 329 335 337 335 336 336 335 334 339 344 346 346 343 345 348 352 353 357 356 354 352 353 353 362 358 360 363 360 360 361
306 303 308 312 314 313 313 313 313 313 314 313 313 314 322 331 334 338 338 338 336 337 338 343 346 347 346 345 347 351 353 357 359 356 357 355 356 359 359 361 364 363 360 362
304 306 310 311 314 310 312 312 311 311 312 317 315 314 321 328 333 336 339 340 340 339 337 342 345 347 348 347 346 349 354 356 359 360 359 361 360 361 359 362 359 362 362 360
306 310 308 309 311 312 308 313 313 310 309 307 315 306 316 326 328 333 337 339 340 340 341 341 344 346 347 349 348 350 354 357 359 362 360 361 353 350 352 358 358 361 365 364
305 306 307 308 311 314 310 315 312 312 310 308 309 306 313 320 323 329 334 339 340 341 342 341 343 346 348 349 350 349 354 358 359 361 362 358 359 352 355 355 366 368 368 365
309 312 312 313 315 315 314 312 311 311 310 301 307 306 308 314 316 319 325 338 341 341 343 344 345 346 347 350 350 351 353 359 360 360 362 362 360 357 352 356 355 369 360 361
305 308 309 311 312 315 313 308 300 299 299 299 309 306 310 316 321 324 320 330 340 343 342 344 345 345 347 349 350 351 354 357 360 359 360 361 362 361 360 362 355 366 362 355
300 296 305 306 310 309 310 308 301 295 296 300 307 302 309 319 325 327 331 333 336 341 343 344 345 346 347 348 350 352 354 356 359 359 360 362 363 358 357 357 353 354 353 357
300 297 303 304 306 307 309 306 310 302 305 302 303 309 313 317 321 326 329 332 333 336 341 343 346 347 347 348 351 353 354 357 359 358 360 361 363 362 358 360 360 355 360 358
303 297 302 303 305 306 308 312 302 303 297 296 301 304 305 311 317 322 324 328 334 338 338 339 343 347 349 349 350 353 355 356 358 358 358 358 361 362 362 360 360 359 358 361
304 303 299 303 301 301 303 304 305 306 304 299 297 301 308 312 319 320 323 328 334 334 340 341 338 342 348 350 349 350 353 355 356 358 358 359 358 360 361 359 358 360 361 362
303 303 298 299 302 303 303 304 306 301 301 303 303 299 312 315 320 322 323 330 327 330 331 336 343 343 343 346 348 348 350 352 354 357 358 358 360 360 358 359 357 359 359 362
303 301 295 296 300 302 301 302 304 305 306 303 299 298 314 317 320 321 322 326 324 324 327 329 331 333 342 345 350 349 349 350 353 356 355 357 358 358 358 358 359 359 359 360
305 302 298 295 298 302 298 299 301 303 301 302 303 303 308 311 314 318 321 324 323 323 320 325 327 326 329 335 338 350 349 350 351 353 354 356 357 359 358 359 360 359 360 359
303 298 300 299 298 299 298 298 298 300 301 300 303 304 308 310 312 315 319 321 319 319 320 320 322 325 325 324 330 338 350 350 352 352 352 354 358 359 359 360 359 359 360 359
302 297 299 295 296 297 295 297 297 297 298 300 302 302 309 311 312 311 314 316 315 315 316 318 321 321 326 325 325 326 334 349 352 352 350 355 357 358 359 360 359 359 359 359
299 299 296 293 295 294 291 297 297 297 300 300 298 304 306 306 306 308 310 312 312 313 313 314 317 318 321 327 328 324 327 336 348 351 352 352 355 355 357 358 359 358 359 359
298 298 297 295 293 286 297 301 300 298 301 303 303 303 304 305 307 310 311 310 310 311 312 314 314 315 317 321 328 329 327 327 332 341 348 351 352 353 356 355 356 357 357 358
302 298 294 291 291 293 294 297 298 297 299 302 303 303 304 306 308 310 311 310 310 311 312 313 314 314 317 317 319 329 329 328 328 326 331 337 350 352 354 352 354 356 356 355
298 300 297 293 289 286 297 299 302 302 295 302 303 302 302 303 300 308 309 309 309 310 311 311 312 314 315 317 317 319 326 327 327 326 326 331 335 340 348 353 357 357 357 355
295 296 293 293 291 295 301 300 303 291 296 302 301 301 301 301 303 306 307 308 309 310 310 312 312 312 315 317 318 318 321 324 327 328 328 327 335 336 342 346 345 351 358 360
295 294 294 295 292 289 304 300 296 301 302 301 302 302 302 302 304 305 306 307 308 309 310 311 311 312 315 316 316 317 319 325 328 328 327 328 327 331 338 345 348 351 351 354
293 298 299 297 298 304 304 302 304 302 301 302 303 303 303 302 303 305 305 306 307 308 309 310 310 311 314 316 318 316 321 325 326 326 326 326 327 328 334 339 342 343 347 348
298 300 298 296 299 302 303 303 303 303 302 303 304 303 302 302 304 304 305 305 305 306 307 309 310 310 311 315 317 319 320 323 324 322 323 323 322 322 326 330 333 335 338 339
302 300 299 298 300 300 303 304 304 304 304 303 304 304 303 304 304 304 304 302 304 303 306 308 306 306 309 313 315 318 321 321 323 322 319 322 319 318 320 324 327 329 336 332
301 300 298 298 303 302 303 306 306 305 304 304 304 303 304 304 303 304 302 303 303 304 303 304 303 304 305 309 313 318 320 321 321 321 320 318 319 318 317 318 321 315 311 310
Wind_Speed
15 12 16 16 16 11 13 14 12 9 8 6 8 4 15 11 15 15 15 17 19 19 17 17 15 13 13 13 13 12 12 11 9 8 8 7 6 4 4 5 4 5 4 5
12 17 14 13 8 8 12 13 13 8 6 5 8 8 8 13 11 16 17 17 19 19 20 17 15 14 13 13 14 13 12 11 10 8 6 5 4 6 6 6 5 6 5 5
15 11 11 14 14 13 13 15 13 12 8 4 5 9 11 9 12 11 14 15 18 20 22 20 17 16 14 13 14 14 13 12 11 9 6 5 4 4 5 5 6 6 7 6
10 8 16 18 17 15 14 8 6 7 11 9 9 8 10 11 10 11 14 16 17 19 20 20 20 17 15 14 14 13 13 13 12 11 8 8 7 6 5 5 5 6 6 8
11 16 17 19 16 15 4 12 12 11 11 4 12 10 11 9 10 10 13 15 15 18 19 20 20 19 17 16 14 15 14 13 13 12 11 8 9 6 5 6 8 5 5 6
4 7 14 15 11 13 9 10 8 8 11 12 11 16 10 8 6 3 6 16 17 16 18 18 18 19 17 16 15 15 16 15 14 13 13 11 9 8 5 6 7 5 6 6
8 11 4 5 15 14 14 16 10 11 10 9 14 12 12 9 9 9 3 6 17 16 16 17 17 17 17 16 15 15 16 16 15 16 14 14 12 10 8 6 7 7 7 6
14 12 9 4 12 13 21 19 9 12 13 12 9 9 10 9 10 10 12 9 4 15 13 14 15 15 17 17 16 16 17 17 17 17 16 14 14 9 9 9 8 8 9 7
10 10 6 3 2 7 20 18 7 6 6 11 13 12 12 9 11 13 13 13 12 7 8 14 14 15 15 16 17 17 17 17 17 17 14 14 13 14 10 10 9 8 6 4
2 11 1 5 4 1 8 14 11 10 13 12 13 15 11 8 10 13 14 15 13 12 7 4 8 15 15 16 16 17 17 17 17 18 15 14 15 14 13 10 11 10 9 8
2 7 9 8 3 1 7 11 10 11 5 13 10 8 6 7 8 11 14 14 18 16 13 10 8 9 12 15 14 16 17 17 16 16 16 15 15 15 13 13 13 12 11 10
4 6 9 10 6 1 4 6 9 11 12 7 7 10 5 6 9 11 13 17 16 17 16 18 18 13 3 7 12 14 14 15 16 15 15 16 15 14 15 14 14 12 13 12
4 4 9 9 10 5 3 1 4 9 9 14 10 11 9 9 9 11 12 15 14 17 17 17 17 16 16 15 13 8 12 14 14 14 15 15 15 15 16 15 14 14 13 13
7 1 7 3 4 4 7 3 2 9 11 9 6 20 13 10 10 10 10 13 14 15 17 18 17 17 16 15 16 13 8 11 12 13 14 14 15 15 15 15 14 15 14 14
5 4 1 7 6 4 1 2 2 1 6 7 18 18 12 8 9 9 9 11 13 15 17 16 17 16 16 17 17 17 15 9 9 10 12 13 13 14 14 14 14 15 15 14
4 5 4 2 1 1 6 4 3 2 2 3 8 15 7 7 8 8 10 11 12 14 15 15 16 16 18 16 14 16 16 16 8 9 11 11 11 12 13 13 14 15 15 15
1 7 8 7 2 4 9 12 7 3 3 2 8 13 4 7 6 5 6 9 11 12 13 14 15 15 14 16 15 15 15 16 15 9 8 9 10 11 12 13 13 14 15 15
6 6 4 5 7 9 9 4 1 3 8 4 8 7 5 4 4 6 8 8 10 13 14 13 13 14 14 15 15 14 11 14 14 14 11 7 7 7 9 11 13 13 13 14
4 5 4 5 12 5 8 6 7 12 9 3 6 4 3 6 6 11 7 9 9 10 12 12 13 14 13 13 15 15 13 12 11 13 12 15 12 9 10 9 11 10 11 13
5 6 6 6 6 6 11 8 3 3 7 6 2 3 3 5 6 12 9 11 12 11 11 12 15 14 13 14 14 14 13 12 13 12 11 10 11 12 12 11 10 11 12 12
6 5 9 8 6 3 8 8 5 9 9 7 3 3 4 5 6 12 13 13 12 12 13 13 12 13 12 13 14 12 13 12 12 13 13 11 9 9 12 8 7 11 11 11
7 6 5 6 6 7 12 9 5 8 6 4 3 3 3 5 6 8 10 12 13 13 14 14 13 12 13 12 12 14 12 12 12 12 12 12 11 11 9 10 9 9 10 12
5 4 2 5 3 7 13 5 8 5 6 5 1 1 2 6 7 9 11 13 13 14 13 13 13 14 13 13 11 14 14 11 11 11 12 11 12 12 13 11 11 9 8 8
5 4 3 2 10 9 9 5 5 5 5 3 2 2 5 8 10 12 12 12 12 13 15 14 15 14 15 14 14 13 13 16 9 10 11 9 10 11 11 10 10 9 6 7
2 8 7 7 4 5 10 8 9 8 4 2 1 3 5 9 10 12 11 11 12 11 14 13 12 13 17 18 17 16 13 14 13 10 8 10 8 9 11 11 9 11 13 9
8 9 7 5 6 8 4 12 11 9 7 2 2 4 5 6 10 11 10 10 9 11 11 12 11 11 12 16 17 17 14 12 14 12 10 7 8 9 9 8 12 12 14 15
Wind_Direction
192 200 205 196 211 303 178 205 185 152 134 191 172 136 148 170 172 169 192 186 184 181 177 174 180 176 178 179 180 183 182 174 184 178 181 178 176 232 209 209 141 165 147 143
174 220 195 193 187 204 208 192 164 139 145 250 146 135 122 168 198 173 187 191 189 182 179 182 184 178 185 183 183 181 190 184 200 189 196 200 207 169 197 235 169 186 180 155
201 191 166 194 185 199 204 200 154 172 157 189 196 169 158 169 192 177 191 191 190 190 190 187 190 191 188 184 187 184 187 191 197 213 191 187 190 205 166 176 192 174 173 184
225 143 186 195 195 209 184 228 162 172 197 193 221 183 162 147 169 189 187 193 189 191 195 190 190 193 194 192 187 185 188 192 195 205 207 216 204 200 189 166 174 167 182 172
183 196 194 197 199 202 184 172 205 203 216 155 189 258 102 155 138 167 196 199 204 191 192 192 192 188 197 196 190 187 189 193 205 198 231 206 233 200 172 211 126 210 173 189
107 201 198 201 188 201 124 171 178 194 211 218 183 228 92 62 16 345 238 193 208 203 194 196 194 186 197 201 201 195 189 193 201 206 208 221 228 239 227 211 175 185 200 182
164 166 121 270 191 200 197 177 167 189 201 223 168 222 64 68 43 19 101 188 192 209 200 194 198 198 197 202 203 203 197 201 198 204 210 213 220 225 223 220 208 180 237 186
177 172 182 196 234 189 206 204 192 189 193 181 153 210 99 73 61 55 58 53 173 190 203 204 202 208 203 203 203 206 200 206 205 210 210 213 216 216 227 216 258 190 216 188
192 110 132 80 242 272 192 221 294 272 237 193 164 85 104 87 69 64 68 72 63 34 200 198 211 214 216 209 209 207 207 206 209 209 214 212 213 224 222 242 206 233 250 209
92 133 168 111 200 140 285 205 200 239 180 204 161 171 101 82 61 65 54 53 52 68 58 336 268 217 217 219 215 211 214 214 211 210 208 214 213 215 219 224 232 233 240 237
291 255 136 190 326 104 171 201 234 250 278 220 148 142 82 75 52 59 56 53 46 22 31 38 354 254 237 218 221 214 215 219 216 216 211 214 213 213 213 215 222 230 225 226
27 289 164 99 119 309 289 330 260 226 196 262 282 99 94 88 70 61 58 62 43 39 30 20 21 25 308 237 231 224 219 217 219 220 215 215 217 212 210 215 216 220 226 219
358 179 162 170 172 174 219 131 275 269 285 218 245 116 138 116 84 59 51 60 51 40 31 37 37 26 13 6 348 233 229 225 220 211 216 218 216 215 218 214 214 213 218 223
264 68 312 262 70 58 171 156 342 272 239 222 225 128 130 105 85 65 54 53 48 43 35 23 34 31 24 13 357 333 251 244 226 221 214 219 221 221 221 224 219 213 209 218
342 142 89 63 60 57 57 160 80 294 353 283 127 128 111 89 75 53 47 56 44 37 32 28 18 22 26 22 9 355 338 272 249 242 239 221 218 225 227 226 224 222 216 214
334 139 160 126 26 305 248 217 173 165 141 88 119 110 109 115 82 50 40 35 40 31 25 18 23 20 6 22 17 2 350 339 277 239 244 252 238 228 226 224 224 225 221 221
245 160 199 187 208 242 237 218 209 143 114 318 194 88 125 93 66 46 59 43 30 22 18 9 7 12 9 359 14 12 353 347 338 281 247 248 243 241 235 233 228 226 226 225
160 182 218 129 189 221 73 78 107 202 91 116 110 95 75 28 5 102 87 46 21 6 359 358 354 353 357 354 358 3 4 359 354 352 329 300 277 256 255 245 240 234 236 230
275 189 164 205 210 73 173 184 191 186 145 145 132 120 44 356 302 140 104 28 3 351 341 340 341 339 335 345 348 348 358 7 10 360 351 344 320 290 253 248 250 252 240 240
183 282 249 197 231 232 81 128 138 196 167 123 132 94 23 332 258 97 6 343 337 337 334 332 331 322 331 338 343 339 342 352 356 355 340 329 333 324 300 291 258 242 240 240
178 203 215 210 240 116 117 138 160 219 85 114 65 22 351 332 351 329 329 329 324 319 319 325 314 315 320 326 328 324 324 333 346 340 336 334 323 323 305 287 274 283 261 249
192 197 205 223 226 216 146 150 238 90 123 107 98 46 356 342 328 332 336 334 328 322 320 316 310 310 312 315 316 309 307 317 323 332 329 331 328 321 304 299 297 278 255 263
231 240 272 235 52 110 167 62 115 131 122 118 105 81 324 310 320 331 331 337 335 330 323 312 307 306 305 305 305 301 302 301 311 314 323 322 323 318 310 305 299 288 267 252
219 215 241 268 168 161 160 148 153 156 123 128 95 3 331 324 330 325 334 338 330 330 326 317 308 301 305 305 298 288 291 296 282 299 304 313 315 319 305 296 295 283 282 285
212 166 212 247 204 200 208 202 174 169 163 156 36 342 334 329 323 319 326 325 324 331 324 323 329 326 311 299 292 286 282 284 278 271 280 297 296 307 310 291 285 295 292 315
195 205 193 217 197 212 115 181 169 180 189 192 293 302 313 318 316 330 313 312 315 318 331 335 327 315 309 308 282 282 281 271 275 273 271 257 299 297 296 290 295 257 237 266